Weather Roundup
Issued by NWS Chicago, IL

Home | Current Version | Previous Version | Text Only | Print | Product List | Glossary Off
Versions: 1 2 3 4 5 6 7 8 9 10 11 12 13 14 15 16 17 18 19 20 21 22 23 24 25 26 27 28 29 30 31 32 33 34 35 36 37 38 39 40 41 42 43 44 45 46 47 48 49 50

000
NZUS59 KLOT 221400
HRRLOT

CHICAGO AREA WEATHER ROUNDUP
NATIONAL WEATHER SERVICE CHICAGO/ROMEOVILLE IL
900 AM CDT FRI AUG 22 2014

NOTE: "FAIR" INDICATES FEW OR NO CLOUDS BELOW 12,000 FEET WITH NO
SIGNIFICANT WEATHER AND/OR OBSTRUCTIONS TO VISIBILITY.

* THESE STATIONS ARE NOT UNDER NWS QUALITY CONTROL. THEY ALSO MAY NOT
  REPORT WEATHER SUCH AS PRECIPITATION OR FOG.

ILZ005-006-012>014-019>023-221500-
NORTHEAST ILLINOIS

CITY           SKY/WX    TMP DP  RH WIND       PRES   REMARKS
OHARE          CLOUDY    77  71  82 SW5       29.93S
MIDWAY         CLOUDY    79  74  84 SW7       29.94R HX  82
AURORA         CLOUDY    77  73  87 SW9       29.95R
WAUKEGAN       CLOUDY    74  72  93 CALM      29.94R
DUPAGE AIRPORT PTSUNNY   77  73  87 SW8       29.94R
WHEELING       PTSUNNY   77  72  84 CALM      29.94S
NORTHERLY IS     N/A     75  71  87 E6          N/A
$$

WIZ051-052-058>065-066-070>072-221500-
SOUTHEAST WISCONSIN

CITY           SKY/WX    TMP DP  RH WIND       PRES   REMARKS
MILWAUKEE      FOG       73  70  90 NE10      29.94F VSB 1/4
KENOSHA*       CLOUDY    73  72  96 CALM      29.94F
RACINE*        CLOUDY    76  72  87 CALM      29.95F
WAUKESHA       PTSUNNY   70  70 100 CALM      29.96S FOG
$$

INZ001>003-010>013-019-020-221500-
NORTHWEST INDIANA

CITY           SKY/WX    TMP DP  RH WIND       PRES   REMARKS
GARY*          PTSUNNY   75  73  94 MISG      29.96R
MICHIGAN CITY* NOT AVBL
RENSSELAER*    NOT AVBL
VALPARAISO     CLOUDY    74  71  91 S6        29.98R
$$

LMZ740>746-221500-
SOUTHERN LAKE MICHIGAN

STATION/POSITION TIME  SKY/WX   TEMP WIND        PRES    VSBY
                                AIR  DIR/SP/G
                 (UTC)          (F)  (DEG/KT/KT) (MB)    (MI)
HARRISON CRIB    1300            73  160/ 10/ 12   N/A
BURNHAM HARBOR   1400            75  120/  5/  6   N/A
CALUMET HARBOR   1300            75  160/  4/  6 1012.6R
BURNS HARBOR     NOT AVBL
MICHIGAN CITY    1300            74  130/  6/  8   N/A
$$

ABBREVIATIONS USED IN REMARKS
   TC - TEMPERATURE IN CELSIUS
  WCI - WIND CHILL INDEX
   HX - HEAT INDEX
  VSB - VISIBILITY
$$


USA.gov is the U.S. government's official web portal to all federal, state and local government web resources and services.